SCP
0 0 0 0 0 0 0 0 0 0 0 0 0 0 0 0 0 0 0 0 0 0 0 0 0 0 0 0 0 0 0 0 0 0 0 0 0 0 0 0 0 0 0
0 0 0 0 0 0 0 0 0 0 0 0 0 0 0 0 0 0 0 0 0 0 0 0 0 0 0 0 0 0 0 0 0 0 0 0 0 0 0 0 0 0 0
0 0 0 0 0 0 0 0 0 0 0 0 0 0 0 0 0 0 0 0 0 0 0 0 0 0 0 0 0 0 0 0 0 0 0 0 0 0 0 0 0 0 0
0 0 0 0 0 0 0 0 0 0 0 0 0 0 0 0 0 0 0 0 0 0 0 0 0 0 0 0 0 0 0 0 0 0 0 0 0 0 0 0 0 0 0
0 0 0 0 0 0 0 0 0 0 0 0 0 0 0 0 0 0 0 0 0 0 0 0 0 0 0 0 0 0 0 0 0 0 0 0 0 0 0 0 0 0 0
0 0 0 0 0 0 0 0 0 0 0 0 0 0 0 0 0 0 0 0 0 0 0 0 0 0 0 0 0 0 0 0 0 0 0 0 0 0 0 0 0 0 0
0 0 0 0 0 0 0 0 0 0 0 0 0 0 0 0 0 0 0 0 0 0 0 0 0 0 0 0 0 0 0 0 0 0 0 0 0 0 0 0 0 0 0
0 0 0 0 0 0 0 0 0 0 0 0 0 0 0 0 0 0 0 0 0 0 0 0 0 0 0 0 0 0 0 0 0 0 0 0 0 0 0 0 0 0 0
0 0 0 0 0 0 0 0 0 0 0 0 0 0 0 0 0 0 0 0 0 0 0 0 0 0 0 0 0 0 0 0 0 0 0 0 0 0 0 0 0 0 0
0 0 0 0 0 0 0 0 0 0 0 0 0 0 0 0 0 0 0 0 0 0 0 0 0 0 0 0 0 0 0 0 0 0 0 0 0 0 0 0 0 0 0
0 0 0 0 0 0 0 0 0 0 0 0 0 0 0 0 0 0 0 0 0 0 0 0 0 0 0 0 0 0 0 0 0 0 0 0 0 0 0 0 0 0 0
0 0 0 0 0 0 0 0 0 0 0 0 0 0 0 0 0 0 0 0 0 0 0 0 0 0 0 0 0 0 0 0 0 0 0 0 0 0 0 0 0 0 0
0 0 0 0 0 0 0 0 0 0 0 0 0 0 0 0 0 0 0 0 0 0 0 0 0 0 0 0 0 0 0 0 0 0 0 0 0 0 0 0 0 0 0
0 0 0 0 0 0 0 0 0 0 0 0 0 0 0 0 0 0 0 0 0 0 0 0 0 0 0 0 0 0 0 0 0 0 0 0 0 0 0 0 0 0 0
0 0 0 0 0 0 0 0 0 0 0 0 0 0 0 0 0 0 0 0 0 0 0 0 0 0 0 0 0 0 0 0 0 0 0 0 0 0 0 0 0 0 0
0 0 0 0 0 0 0 0 0 0 0 0 0 0 0 0 0 0 0 0 0 0 0 0 0 0 0 0 0 0 0 0 0 0 0 0 0 0 0 0 0 0 0
0 0 0 0 0 0 0 0 0 0 0 0 0 0 0 0 0 0 0 0 0 0 0 0 0 0 0 0 0 0 0 0 0 0 0 0 0 0 0 0 0 0 0
0 0 0 0 0 0 0 0 0 0 0 0 0 0 0 0 0 0 0 0 0 0 0 0 0 0 0 0 0 0 0 0 0 0 0 0 0 0 0 0 0 0 0
0 0 0 0 0 0 0 0 0 0 0 0 0 0 0 0 0 0 0 0 0 0 0 0 0 0 0 0 0 0 0 0 0 0 0 0 0 0 0 0 0 0 0
0 0 0 0 0 0 0 0 0 0 0 0 0 0 0 0 0 0 0 0 0 0 0 0 0 0 0 0 0 0 0 0 0 0 0 0 0 0 0 0 0 0 0
0 0 0 0 0 0 0 0 0 0 0 0 0 0 0 0 0 0 0 0 0 0 0 0 0 0 0 0 0 0 0 0 0 0 0 0 0 0 0 0 0 0 0
0 0 0 0 0 0 0 0 0 0 0 0 0 0 0 0 0 0 0 0 0 0 0 0 0 0 0 0 0 0 0 0 0 0 0 0 0 0 0 0 0 0 0
0 0 0 0 0 0 0 0 0 0 0 0 0 0 0 0 0 0 0 0 0 0 0 0 0 0 0 0 0 0 0 0 0 0 0 0 0 0 0 0 0 0 0
0 0 0 0 0 0 0 0 0 0 0 0 0 0 0 0 0 0 0 0 0 0 0 0 0 0 0 0 0 0 0 0 0 0 0 0 0 0 0 0 0 0 0
0 0 0 0 0 0 0 0 0 0 0 0 0 0 0 0 0 0 0 0 0 0 0 0 0 0 0 0 0 0 0 0 0 0 0 0 0 0 0 0 0 0 0
0 0 0 0 0 0 0 0 0 0 0 0 0 0 0 0 0 0 0 0 0 0 0 0 0 0 0 0 0 0 0 0 0 0 0 0 0 0 0 0 0 0 0
Wind_Speed
0 2 3 0 3 5 6 6 7 8 7 8 8 8 8 9 9 9 9 10 10 11 11 11 11 11 12 12 12 13 13 13 13 13 12 12 13 14 14 13 12 12 15
1 1 2 1 4 5 6 7 7 7 7 7 8 8 8 8 9 9 9 10 10 11 11 11 11 11 11 12 12 12 12 12 12 11 9 11 12 13 14 13 12 11 15
1 0 1 3 4 5 6 7 7 7 7 7 8 8 8 8 8 9 9 10 10 10 11 11 12 12 12 12 12 12 12 11 10 8 6 8 11 12 13 13 14 15 15
1 1 1 4 5 6 6 7 7 8 7 7 7 7 7 8 8 9 9 10 10 10 10 11 11 12 12 12 12 12 11 11 9 5 6 7 9 12 13 13 14 14 14
2 2 2 4 5 6 6 6 7 7 7 7 7 7 8 8 8 9 9 10 9 10 11 11 12 12 12 12 12 11 11 9 6 5 7 8 8 11 12 12 13 13 14
3 3 4 5 5 6 6 6 6 6 7 7 7 7 8 8 8 9 10 10 9 10 11 12 12 12 12 12 12 11 10 8 5 6 7 7 8 10 11 12 12 13 13
3 3 4 6 6 6 6 6 5 5 6 7 7 7 7 8 8 9 10 10 9 10 11 11 12 12 11 12 12 11 10 7 6 7 7 7 8 11 11 11 12 12 12
3 3 4 6 6 6 6 6 6 5 6 6 7 7 7 7 8 9 9 9 10 10 11 11 12 12 12 12 12 11 9 7 6 7 7 7 9 10 11 11 12 12 12
3 4 4 3 4 5 6 6 6 6 6 6 7 7 7 7 8 8 9 9 9 10 10 11 12 12 12 11 12 11 10 8 7 6 6 6 8 10 11 12 12 12 12
4 4 4 3 3 3 3 6 7 7 7 7 7 7 7 7 8 8 8 8 8 9 10 10 11 11 11 11 11 10 8 6 7 6 5 7 9 10 11 11 11 11 11
3 4 4 4 3 2 3 5 5 6 7 6 6 7 5 4 5 5 8 8 8 9 9 9 10 10 10 10 9 7 5 4 6 5 4 8 9 10 10 10 10 11 10
2 3 3 3 3 3 2 2 2 2 3 3 3 3 2 3 3 4 8 8 8 8 8 9 9 8 6 5 5 4 3 5 5 4 5 8 9 9 9 9 9 9 10
1 1 2 2 3 3 2 2 2 2 2 2 3 3 2 2 3 3 3 4 5 5 5 5 5 4 4 3 3 3 4 4 3 3 5 8 8 8 8 8 8 8 9
1 1 1 2 2 2 2 2 2 1 2 2 2 3 2 1 2 2 2 3 2 2 3 3 2 4 4 4 4 4 4 3 3 3 5 8 7 7 7 7 7 7 8
1 1 1 2 2 2 2 2 2 2 2 2 1 2 2 2 2 2 2 2 2 2 3 3 3 4 4 4 4 4 4 4 4 3 3 7 7 7 7 6 6 7 7
0 0 1 1 2 2 2 2 2 2 1 1 1 2 2 2 1 2 2 2 2 2 2 2 3 3 3 2 3 3 3 3 3 3 3 4 7 6 6 6 6 6 6
1 0 1 1 2 2 2 2 2 2 1 1 1 2 2 2 2 2 2 2 2 2 2 2 3 3 2 2 3 3 2 3 2 2 2 2 3 5 5 5 5 6 6
1 0 1 1 1 2 2 2 1 1 2 1 1 1 2 2 2 1 2 2 2 2 1 2 2 2 2 2 2 2 2 2 2 2 2 2 1 1 3 5 4 4 4
1 1 1 1 1 2 2 2 2 1 2 1 1 1 1 2 1 1 1 2 2 2 1 1 1 1 2 2 2 2 2 1 1 1 2 2 1 1 1 3 3 3 3
2 1 2 2 2 2 2 2 2 2 2 1 1 1 1 1 1 1 1 2 2 2 2 1 2 2 2 2 2 2 2 1 1 1 1 1 1 1 1 1 1 2 2
2 1 1 2 2 2 1 1 1 1 1 1 1 2 1 1 1 1 1 2 2 2 2 3 2 2 2 1 1 1 1 1 0 0 0 0 1 1 1 1 0 0 0
2 2 1 1 2 2 1 1 1 1 1 1 1 1 1 1 1 1 1 1 1 2 3 3 3 2 1 2 1 1 1 1 1 0 0 0 0 0 1 1 1 0 0
3 3 2 2 2 2 2 2 2 1 1 1 0 0 1 1 0 0 1 1 1 2 3 4 4 3 3 3 2 2 2 3 1 1 2 2 1 1 1 1 1 1 1
3 2 2 2 2 2 2 3 3 2 2 2 1 1 1 0 0 0 1 1 1 2 2 3 3 3 3 3 2 2 2 1 2 2 2 3 3 3 3 2 2 2 3
3 2 2 2 1 1 2 3 4 3 2 2 2 2 1 1 1 0 1 1 2 2 2 3 3 3 3 4 3 2 2 2 3 3 3 3 3 3 3 3 3 3 3
3 2 2 2 1 1 1 2 4 3 3 3 3 2 2 1 1 1 1 2 2 2 3 3 4 5 4 4 3 3 3 3 3 3 3 3 4 3 4 4 4 4 3
Wind_Direction
46 309 318 272 105 100 98 100 97 91 89 90 87 84 80 78 75 73 71 68 67 67 66 69 74 80 82 83 85 83 81 79 79 78 79 81 84 87 87 85 89 90 89
291 275 345 55 98 97 95 96 95 93 90 89 87 85 83 80 78 74 71 69 70 69 69 71 76 80 81 82 84 82 81 81 79 77 80 86 82 86 86 80 78 88 90
44 132 105 55 80 91 92 92 97 95 92 90 89 86 85 83 81 78 73 71 71 73 74 75 76 80 78 79 80 80 80 79 77 74 88 95 91 88 88 85 84 89 91
70 111 101 62 74 85 94 93 94 95 91 89 89 87 85 82 83 81 77 74 72 73 79 80 80 80 79 78 76 76 77 75 69 72 91 92 95 91 92 90 90 92 91
94 93 81 55 75 83 90 94 94 95 92 89 87 88 84 82 83 82 79 76 72 73 78 81 81 80 79 78 76 73 73 71 65 84 88 89 91 94 95 94 93 92 92
90 83 74 48 64 83 85 90 96 95 95 94 88 85 83 82 81 81 78 76 76 77 82 81 81 81 80 78 75 71 66 59 76 88 89 88 90 94 97 96 95 94 93
83 73 75 51 59 76 83 82 86 95 96 98 94 89 85 84 83 81 78 75 77 81 84 84 83 82 81 79 74 69 60 44 75 89 88 88 87 91 93 96 98 98 95
81 75 76 55 50 59 72 77 78 82 94 96 94 89 87 86 85 83 81 78 75 79 83 83 82 80 80 78 74 67 56 48 74 83 87 90 86 92 95 93 94 95 94
77 73 68 66 58 51 58 66 70 68 73 84 85 80 80 80 82 81 81 79 77 78 82 82 80 79 78 78 75 68 55 45 71 77 81 86 86 95 96 95 94 94 92
68 60 54 55 60 66 71 63 63 63 65 74 78 77 77 84 87 84 81 77 77 78 79 83 83 81 77 75 72 66 58 59 72 74 78 81 84 93 94 93 93 96 96
54 45 41 39 47 56 71 65 65 70 65 70 76 71 82 101 100 96 78 72 74 77 79 81 83 81 78 76 68 58 59 74 75 68 72 75 84 91 94 92 92 94 96
67 39 32 35 36 49 63 74 66 74 84 79 77 77 93 99 89 84 81 74 75 76 79 77 77 80 75 79 72 57 72 77 76 73 70 70 81 89 93 95 95 96 97
122 54 30 30 42 49 65 70 59 46 64 75 75 67 70 89 93 85 92 88 85 83 81 83 77 69 65 66 64 62 65 67 70 74 70 68 79 86 93 97 98 98 99
105 54 27 31 47 54 60 73 70 64 53 54 67 67 70 85 87 90 84 78 78 77 78 67 64 70 68 69 74 72 67 66 69 67 63 63 74 84 92 98 101 102 100
126 52 31 33 52 66 71 67 69 59 66 55 66 68 66 87 96 88 79 74 75 75 84 82 75 77 71 66 66 67 66 66 72 74 70 63 66 76 85 95 101 102 104
213 18 45 56 58 81 87 84 74 68 62 55 54 65 65 71 99 109 94 81 76 77 84 94 88 81 74 66 67 62 62 63 65 72 77 70 64 67 77 87 94 93 97
214 238 109 92 74 82 86 85 81 78 80 69 47 65 66 65 87 114 111 95 79 78 92 99 97 89 84 72 67 60 57 59 65 69 67 69 78 67 68 76 88 95 99
191 198 147 98 90 82 86 85 80 82 82 74 61 55 67 70 80 111 119 106 91 95 96 108 112 101 87 71 54 47 57 62 61 66 73 73 71 72 71 65 71 86 100
191 184 158 115 106 95 98 96 92 91 78 68 61 45 52 64 83 102 118 118 118 113 110 115 119 108 103 77 51 28 30 43 50 58 78 77 73 72 78 69 64 61 84
180 154 161 136 119 112 117 111 104 96 78 66 54 44 38 63 78 92 111 134 137 133 129 133 130 114 117 103 72 38 19 22 41 61 72 83 88 87 93 79 95 69 76
168 147 133 153 139 129 134 142 139 115 84 70 54 37 30 52 75 103 121 151 161 159 150 148 133 132 127 136 121 81 34 27 34 58 74 148 115 115 119 120 113 92 100
190 175 170 185 171 161 163 169 165 135 113 72 64 37 14 41 85 115 132 155 177 168 161 161 157 164 169 187 186 186 200 205 196 211 200 180 206 202 156 164 165 185 258
205 202 200 208 201 184 176 160 133 123 122 150 132 103 353 358 61 141 161 160 183 182 183 182 185 183 189 201 213 226 214 215 214 199 213 211 214 228 221 217 215 211 230
214 203 200 210 209 200 178 183 178 187 198 214 211 202 209 224 161 180 177 180 190 202 196 197 203 210 206 202 209 252 271 243 217 208 207 215 222 230 228 225 224 220 225
212 195 191 200 199 201 203 197 196 201 206 198 198 195 194 191 200 193 204 201 203 213 210 211 209 213 219 221 217 219 228 238 240 228 229 227 226 225 230 230 233 229 227
201 185 183 187 187 191 215 217 205 197 196 194 201 199 201 200 216 214 224 223 221 222 218 218 215 216 223 227 234 229 221 214 217 228 234 233 239 236 231 229 230 230 226